Regional Weather Roundup
Issued by NWS

Home | Current Version | Previous Version | Text Only | Print | Product List | Glossary Off
Versions: 1 2 3 4 5 6 7 8 9 10 11 12 13 14 15 16 17 18 19 20 21 22 23 24 25 26 27 28 29 30 31 32 33 34 35 36 37 38 39 40 41 42 43 44 45 46 47 48 49

000
ASUS43 KDMX 232107
RWRIA

WEATHER ROUNDUP FOR IOWA
NATIONAL WEATHER SERVICE DES MOINES IA
400 PM CDT TUE SEP 23 2014

NOTE: "FAIR" INDICATES FEW OR NO CLOUDS BELOW 12,000 FEET WITH NO
SIGNIFICANT WEATHER AND/OR OBSTRUCTIONS TO VISIBILITY.

* - THESE STATIONS ARE NOT NWS STATIONS...THUS NOT UNDER NWS
QUALITY CONTROL.  THEY ALSO DO NOT REPORT WEATHER SUCH
AS PRECIPITATION OR FOG.

IAZ001>003-012>014-020>022-031>034-043>046-232200-
   NORTHWEST IOWA

CITY           SKY/WX    TMP DP  RH WIND       PRES   REMARKS
CARROLL *      MOSUNNY   68  55  64 SE13      30.14F
CHEROKEE *     CLOUDY    61  57  88 S10       30.12F
DENISON *      PTSUNNY   66  59  77 SE8G15    30.10F
LE MARS *      CLOUDY    64  55  72 S18G25    30.08F
ORANGE CITY *  PTSUNNY   63  54  72 S17G25    30.08F
SHELDON *      CLOUDY    61  55  82 SE20G29   30.09F
SIOUX CITY     CLOUDY    63  56  78 SE10      30.08F
SPENCER        LGT RAIN  61  53  75 S13G26    30.14F
STORM LAKE *   PTSUNNY   59  59 100 SE15      30.14F
$$

IAZ055>058-069>071-079>083-090>094-232200-
   SOUTHWEST IOWA

CITY           SKY/WX    TMP DP  RH WIND       PRES   REMARKS
ATLANTIC *     MOSUNNY   70  54  56 SE16      30.14S
AUDUBON *      SUNNY     70  52  52 S14G21    30.16F
CLARINDA *     MOSUNNY   72  55  56 S10       30.17S
COUNCIL BLFS * PTSUNNY   70  55  60 S21G28    30.10F
CRESTON *      SUNNY     68  54  60 S14       30.18F
HARLAN  *      CLOUDY    70  54  56 S18       30.15F
LAMONI         CLOUDY    69  55  60 SE8       30.19F
RED OAK *      MOSUNNY   72  55  56 S14G26    30.14S
SHENANDOAH *   PTSUNNY   72  55  56 S14       30.15S
$$

IAZ047>049-059>061-072>074-084-232200-
   CENTRAL IOWA

CITY           SKY/WX    TMP DP  RH WIND       PRES   REMARKS
AMES           CLOUDY    68  51  54 SE12      30.18F
ANKENY *       SUNNY     70  54  56 SE9G16    30.18F
CHARITON *     SUNNY     70  54  56 SE14      30.19F
DES MOINES     CLOUDY    72  52  49 S14       30.18F
GRINNELL*      CLOUDY    70  48  46 SE8       30.21F
KNOXVILLE *    SUNNY     70  52  52 SE13      30.19S
MARSHALLTOWN   CLOUDY    69  48  47 S12       30.19F
PELLA *        CLOUDY    73  50  43 SE13      30.21F
PERRY *          N/A     70  54  56 SE7       30.17F
$$

IAZ004>006-015-016-023>025-035-036-232200-
   NORTH CENTRAL IOWA

CITY           SKY/WX    TMP DP  RH WIND       PRES   REMARKS
ALGONA *       SUNNY     68  52  56 S13G20    30.16F
CLARION *      SUNNY     68  46  45 S12G20    30.18S
ESTHERVILLE    CLOUDY    61  56  83 S13       30.14F
FORT DODGE *   CLOUDY    66  54  63 SE9       30.18F
MASON CITY     PTSUNNY   70  48  45 S15G23    30.19F
FOREST CITY *  SUNNY     70  48  46 S14G20    30.17F
IOWA FALLS *     N/A     70  48  46 SE10G18   30.20F
$$

IAZ007>011-017>019-026>030-037>042-050>054-066-232200-
   NORTHEAST IOWA

CITY           SKY/WX    TMP DP  RH WIND       PRES   REMARKS
CEDAR RAPIDS   PTSUNNY   71  49  45 SE8G16    30.22F
CHARLES CITY * SUNNY     72  48  43 SE14      30.21F
CLINTON *      SUNNY     73  46  38 S7        30.28F
DECORAH *      SUNNY     70  48  46 S7G13     30.21F
DUBUQUE        SUNNY     72  46  39 S10       30.25F
MONTICELLO *   SUNNY     75  45  33 S13G20    30.23F
OELWEIN *      SUNNY     70  48  46 S10       30.23F
WATERLOO       CLOUDY    70  48  45 S10       30.20F
$$

IAZ064-065-067-068-078-232200-
   EAST CENTRAL IOWA

CITY           SKY/WX    TMP DP  RH WIND       PRES   REMARKS
DAVENPORT      SUNNY     74  42  31 SE8       30.25F
IOWA CITY      PTSUNNY   72  48  42 S9        30.24F
MT. PLEASANT * PTSUNNY   73  45  35 SE7       30.23F
MUSCATINE *    SUNNY     75  43  31 S10       30.23F
QUAD CITIES    SUNNY     74  44  34 S7        30.24F
$$

IAZ062-063-075>077-085>089-095>099-232200-
   SOUTHEAST IOWA

CITY           SKY/WX    TMP DP  RH WIND       PRES   REMARKS
BURLINGTON     LGT RAIN  74  50  42 S8        30.23F
FAIRFIELD *    SUNNY     72  48  43 S6G13     30.23F
FORT MADISON * SUNNY     75  46  35 S6        30.24F
KEOKUK *       SUNNY     70  50  49 S6        30.23F
OSKALOOSA *      N/A     70  50  49 S10       30.22F
CENTERVILLE *  SUNNY     72  50  46 SE12      30.22F
OTTUMWA        CLOUDY    70  50  49 S8        30.22F
WASHINGTON *   SUNNY     72  48  43 S9        30.23F
$$

ABBREVIATIONS USED IN REMARKS
   TC - TEMPERATURES IN CELSIUS
  WCI - WIND CHILL INDEX
   HX - HEAT INDEX
  VSB - VISIBILITY
$$




USA.gov is the U.S. government's official web portal to all federal, state and local government web resources and services.